OK,31,62,774,31,2014-10-01T01:45:00,0,28072544,201855
OK,31,62,774,31,2014-10-01T01:50:00,0,28072993,201855
OK,31,62,774,31,2014-10-01T01:55:00,0,28073440,201855
OK,31,62,774,31,2014-10-01T02:05:00,0,28074206,201855
OK,84,23,774,84,2014-10-01T02:10:00,1,28074653,201855
OK,84,23,774,84,2014-10-01T02:15:00,0,28075095,201855
OK,84,23,774,84,2014-10-01T02:20:00,0,28075544,201855
OK,84,23,774,84,2014-10-01T02:25:00,0,28075992,201855
OK,84,23,774,84,2014-10-01T02:30:00,0,28076376,201855
OK,84,23,774,84,2014-10-01T02:35:00,0,28076825,201855
OK,84,23,774,84,2014-10-01T02:40:00,0,28077274,201855
OK,84,23,774,84,2014-10-01T02:50:00,0,28078126,201855
OK,84,23,774,84,2014-10-01T02:55:00,0,28078575,201855
OK,84,23,774,84,2014-10-01T03:00:00,0,28079020,201855
OK,84,23,774,84,2014-10-01T03:05:00,0,28079468,201855
OK,84,23,774,84,2014-10-01T03:10:00,0,28079911,201855
OK,66,29,774,66,2014-10-01T03:20:00,1,28080694,201855
OK,55,35,774,55,2014-10-01T03:25:00,4,28081143,201855
OK,50,38,774,50,2014-10-01T03:30:00,1,28081591,201855
OK,58,33,774,58,2014-10-01T03:35:00,1,28082039,201855
OK,61,31,774,61,2014-10-01T03:40:00,2,28082488,201855
OK,62,31,774,62,2014-10-01T03:45:00,1,28082921,201855
OK,62,31,774,62,2014-10-01T03:50:00,0,28083353,201855
OK,51,38,774,51,2014-10-01T03:55:00,2,28083802,201855
OK,53,36,774,53,2014-10-01T04:00:00,4,28084251,201855
OK,43,45,774,43,2014-10-01T04:05:00,3,28084692,201855
OK,43,45,774,43,2014-10-01T04:10:00,0,28085117,201855
OK,43,45,774,43,2014-10-01T04:15:00,0,28085566,201855
OK,57,34,774,57,2014-10-01T04:20:00,2,28086011,201855
OK,42,46,774,42,2014-10-01T04:25:00,1,28086460,201855
OK,60,32,774,60,2014-10-01T04:30:00,2,28086902,201855
OK,38,51,774,38,2014-10-01T04:35:00,1,28087351,201855
OK,56,34,774,56,2014-10-01T04:40:00,3,28087796,201855
OK,46,42,774,46,2014-10-01T04:45:00,4,28088245,201855
OK,47,41,774,47,2014-10-01T04:50:00,2,28088669,201855
OK,59,32,774,59,2014-10-01T04:55:00,0,28089118,201855
OK,74,26,774,74,2014-10-01T05:00:00,3,28089548,201855
OK,58,33,774,58,2014-10-01T05:05:00,2,28089997,201855
OK,57,34,774,57,2014-10-01T05:10:00,1,28090446,201855
OK,86,22,774,86,2014-10-01T05:15:00,5,28090790,201855
OK,76,25,774,76,2014-10-01T05:20:00,8,28091239,201855
OK,53,36,774,53,2014-10-01T05:25:00,5,28091688,201855
OK,73,26,774,73,2014-10-01T05:30:00,10,28092105,201855
OK,73,26,774,73,2014-10-01T05:35:00,12,28092554,201855
OK,72,26,774,72,2014-10-01T05:40:00,5,28092998,201855
OK,80,24,774,80,2014-10-01T05:45:00,8,28093439,201855
OK,98,19,774,98,2014-10-01T05:50:00,10,28093870,201855
OK,67,28,774,67,2014-10-01T05:55:00,13,28094318,201855
OK,99,19,774,99,2014-10-01T06:00:00,11,28094730,201855
OK,105,18,774,105,2014-10-01T06:05:00,8,28095175,201855
OK,63,30,774,63,2014-10-01T06:10:00,7,28095622,201855
OK,82,23,774,82,2014-10-01T06:15:00,14,28096071,201855
OK,82,23,774,82,2014-10-01T06:20:00,7,28096484,201855
OK,42,46,774,42,2014-10-01T06:25:00,3,28096933,201855
OK,79,24,774,79,2014-10-01T06:30:00,4,28097367,201855
OK,80,24,774,80,2014-10-01T06:35:00,8,28097816,201855
OK,75,25,774,75,2014-10-01T06:40:00,9,28098265,201855
OK,80,24,774,80,2014-10-01T06:45:00,6,28098702,201855
OK,66,29,774,66,2014-10-01T06:50:00,8,28099146,201855
OK,92,21,774,92,2014-10-01T07:00:00,10,28099937,201855
OK,47,41,774,47,2014-10-01T07:10:00,8,28100693,201855
OK,48,40,774,48,2014-10-01T07:20:00,9,28101513,201855
OK,48,40,774,48,2014-10-01T07:25:00,5,28101962,201855
OK,57,34,774,57,2014-10-01T07:30:00,4,28102398,201855
OK,57,34,774,57,2014-10-01T07:35:00,7,28102847,201855
OK,43,45,774,43,2014-10-01T07:40:00,10,28103274,201855
OK,42,46,774,42,2014-10-01T07:45:00,8,28103721,201855
OK,47,41,774,47,2014-10-01T07:50:00,3,28104166,201855
OK,58,33,774,58,2014-10-01T07:55:00,4,28104611,201855
OK,58,33,774,58,2014-10-01T08:00:00,0,28105052,201855
OK,50,38,774,50,2014-10-01T08:05:00,3,28105497,201855
OK,80,24,774,80,2014-10-01T08:10:00,3,28105937,201855
OK,104,18,774,104,2014-10-01T08:15:00,1,28106386,201855
OK,39,49,774,39,2014-10-01T08:20:00,5,28107213,201855
OK,49,39,774,49,2014-10-01T08:30:00,3,28107661,201855
OK,65,29,774,65,2014-10-01T08:35:00,5,28108110,201855
OK,82,23,774,82,2014-10-01T08:40:00,5,28108549,201855
OK,74,26,774,74,2014-10-01T08:45:00,6,28108998,201855
OK,63,30,774,63,2014-10-01T08:50:00,8,28109426,201855
OK,62,31,774,62,2014-10-01T09:00:00,8,28110218,201855
OK,50,38,774,50,2014-10-01T09:05:00,3,28110665,201855
OK,51,38,774,51,2014-10-01T09:10:00,2,28111090,201855
OK,79,24,774,79,2014-10-01T09:15:00,2,28111537,201855
OK,76,25,774,76,2014-10-01T09:20:00,11,28111968,201855
OK,55,35,774,55,2014-10-01T09:30:00,6,28112758,201855
OK,54,35,774,54,2014-10-01T09:35:00,5,28113206,201855
OK,53,36,774,53,2014-10-01T09:40:00,8,28113631,201855
OK,59,32,774,59,2014-10-01T09:45:00,7,28114078,201855
OK,60,32,774,60,2014-10-01T09:50:00,4,28114512,201855
OK,51,38,774,51,2014-10-01T10:00:00,4,28115315,201855
OK,31,62,774,31,2014-10-01T10:05:00,4,28115763,201855
OK,31,62,774,31,2014-10-01T10:10:00,4,28116176,201855
OK,38,51,774,38,2014-10-01T10:15:00,5,28116624,201855
OK,38,51,774,38,2014-10-01T10:20:00,7,28117033,201855
OK,44,44,774,44,2014-10-01T10:25:00,6,28117479,201855
OK,58,33,774,58,2014-10-01T10:30:00,9,28117907,201855
OK,72,26,774,72,2014-10-01T10:35:00,5,28118356,201855
OK,48,40,774,48,2014-10-01T10:40:00,1,28118801,201855
OK,27,71,774,27,2014-10-01T10:45:00,1,28119248,201855
OK,50,38,774,50,2014-10-01T10:50:00,3,28119692,201855
OK,63,30,774,63,2014-10-01T10:55:00,4,28120140,201855
OK,78,24,774,78,2014-10-01T11:00:00,4,28120588,201855
OK,57,34,774,57,2014-10-01T11:10:00,4,28121420,201855
OK,56,34,774,56,2014-10-01T11:15:00,4,28121867,201855
OK,54,35,774,54,2014-10-01T11:20:00,3,28122307,201855
OK,62,31,774,62,2014-10-01T11:30:00,10,28123197,201855
OK,72,26,774,72,2014-10-01T11:35:00,9,28123644,201855
OK,62,31,774,62,2014-10-01T11:40:00,10,28124078,201855
OK,52,37,774,52,2014-10-01T11:50:00,7,28124929,201855
OK,52,37,774,52,2014-10-01T11:55:00,10,28125378,201855
OK,78,24,774,78,2014-10-01T12:00:00,5,28125807,201855
OK,51,38,774,51,2014-10-01T12:05:00,7,28126608,201855
OK,85,22,774,85,2014-10-01T12:10:00,3,28127057,201855
OK,46,42,774,46,2014-10-01T12:20:00,4,28127506,201855
OK,60,32,774,60,2014-10-01T12:30:00,8,28128383,201855
OK,58,33,774,58,2014-10-01T12:35:00,7,28128831,201855
OK,67,28,774,67,2014-10-01T12:40:00,4,28129267,201855
OK,87,22,774,87,2014-10-01T12:45:00,8,28129709,201855
OK,65,29,774,65,2014-10-01T12:50:00,6,28130150,201855
OK,54,35,774,54,2014-10-01T13:00:00,2,28131027,201855
OK,97,20,774,97,2014-10-01T13:05:00,3,28131473,201855
OK,97,20,774,97,2014-10-01T13:10:00,3,28131913,201855
OK,47,41,774,47,2014-10-01T13:15:00,3,28132799,201855
OK,73,26,774,73,2014-10-01T13:20:00,5,28133237,201855
OK,68,28,774,68,2014-10-01T13:25:00,7,28133685,201855
OK,45,43,774,45,2014-10-01T13:30:00,3,28134125,201855
OK,61,31,774,61,2014-10-01T13:40:00,6,28134573,201855
OK,51,38,774,51,2014-10-01T13:45:00,7,28135441,201855
OK,73,26,774,73,2014-10-01T13:50:00,5,28135880,201855
OK,97,20,774,97,2014-10-01T14:00:00,5,28136327,201855
OK,65,29,774,65,2014-10-01T14:10:00,2,28137216,201855
OK,68,28,774,68,2014-10-01T14:20:00,5,28138099,201855
OK,73,26,774,73,2014-10-01T14:30:00,7,28138976,201855
OK,45,43,774,45,2014-10-01T14:40:00,8,28139836,201855
OK,34,57,774,34,2014-10-01T14:50:00,4,28140727,201855
OK,75,25,774,75,2014-10-01T15:00:00,6,28141602,201855
OK,55,35,774,55,2014-10-01T15:10:00,6,28142479,201855
OK,67,28,774,67,2014-10-01T15:15:00,3,28142927,201855
OK,79,24,774,79,2014-10-01T15:20:00,3,28143355,201855
OK,79,24,774,79,2014-10-01T15:25:00,3,28143804,201855
OK,58,33,774,58,2014-10-01T15:30:00,5,28144252,201855
OK,58,33,774,58,2014-10-01T15:35:00,5,28144699,201855
OK,59,32,774,59,2014-10-01T15:45:00,1,28145536,201855
OK,59,32,774,59,2014-10-01T15:50:00,1,28145985,201855
OK,59,32,774,59,2014-10-01T15:55:00,0,28146434,201855
OK,67,28,774,67,2014-10-01T16:00:00,3,28146883,201855
OK,42,46,774,42,2014-10-01T16:05:00,4,28147291,201855
OK,37,52,774,37,2014-10-01T16:10:00,3,28147735,201855
OK,54,35,774,54,2014-10-01T16:20:00,2,28148585,201855
OK,88,22,774,88,2014-10-01T16:25:00,1,28149032,201855
OK,62,31,774,62,2014-10-01T16:30:00,1,28149473,201855
OK,44,44,774,44,2014-10-01T16:40:00,2,28150348,201855
OK,55,35,774,55,2014-10-01T16:50:00,0,28151215,201855
OK,33,58,774,33,2014-10-01T16:55:00,1,28151664,201855
OK,34,57,774,34,2014-10-01T17:05:00,1,28152113,201855
OK,43,45,774,43,2014-10-01T17:10:00,4,28152560,201855
OK,45,43,774,45,2014-10-01T17:15:00,5,28153008,201855
OK,40,48,774,40,2014-10-01T17:20:00,2,28153455,201855
OK,60,32,774,60,2014-10-01T17:25:00,1,28153903,201855
OK,69,28,774,69,2014-10-01T17:30:00,2,28154314,201855
OK,69,28,774,69,2014-10-01T17:35:00,2,28154763,201855
OK,39,49,774,39,2014-10-01T17:40:00,0,28155205,201855
OK,42,46,774,42,2014-10-01T17:50:00,1,28156071,201855
OK,42,46,774,42,2014-10-01T17:55:00,0,28156520,201855
OK,44,44,774,44,2014-10-01T18:00:00,1,28156968,201855
OK,44,44,774,44,2014-10-01T18:05:00,1,28157402,201855
OK,63,30,774,63,2014-10-01T18:10:00,2,28157836,201855
OK,64,30,774,64,2014-10-01T18:15:00,2,28158285,201855
OK,64,30,774,64,2014-10-01T18:20:00,0,28158729,201855
OK,43,45,774,43,2014-10-01T18:25:00,1,28159172,201855
OK,57,34,774,57,2014-10-01T18:35:00,1,28159956,201855
OK,57,34,774,57,2014-10-01T18:40:00,0,28160405,201855
OK,57,34,774,57,2014-10-01T18:45:00,0,28160854,201855
OK,58,33,774,58,2014-10-01T18:50:00,1,28161292,201855
OK,58,33,774,58,2014-10-01T19:00:00,0,28162158,201855
OK,58,33,774,58,2014-10-01T19:05:00,0,28162606,201855
OK,58,33,774,58,2014-10-01T19:10:00,0,28163000,201855
OK,42,46,774,42,2014-10-01T19:20:00,1,28163888,201855
OK,62,31,774,62,2014-10-01T19:30:00,1,28164768,201855
OK,62,31,774,62,2014-10-01T19:35:00,0,28165211,201855
OK,62,31,774,62,2014-10-01T19:40:00,0,28165642,201855
OK,37,52,774,37,2014-10-01T19:45:00,1,28166084,201855
OK,37,52,774,37,2014-10-01T19:50:00,0,28166893,201855
OK,33,58,774,33,2014-10-01T19:55:00,1,28167326,201855
OK,33,58,774,33,2014-10-01T20:00:00,0,28167756,201855
OK,33,58,774,33,2014-10-01T20:05:00,0,28168204,201855
OK,71,27,774,71,2014-10-01T20:10:00,1,28168649,201855
OK,46,42,774,46,2014-10-01T20:15:00,2,28169098,201855
OK,32,60,774,32,2014-10-01T20:20:00,1,28169546,201855
OK,32,60,774,32,2014-10-01T20:25:00,0,28169976,201855
OK,31,62,774,31,2014-10-01T20:30:00,1,28170417,201855
OK,31,62,774,31,2014-10-01T20:35:00,1,28170865,201855
OK,48,40,774,48,2014-10-01T20:40:00,1,28171302,201855
OK,48,40,774,48,2014-10-01T20:45:00,1,28171748,201855
OK,48,40,774,48,2014-10-01T20:50:00,0,28172196,201855
OK,19,102,774,19,2014-10-01T20:55:00,1,28172642,201855
OK,19,102,774,19,2014-10-01T21:00:00,1,28173088,201855
OK,19,102,774,19,2014-10-01T21:05:00,0,28173537,201855
OK,19,102,774,19,2014-10-01T21:10:00,0,28173978,201855
OK,19,102,774,19,2014-10-01T21:15:00,0,28174427,201855
OK,19,102,774,19,2014-10-01T21:20:00,0,28174853,201855
OK,19,102,774,19,2014-10-01T21:25:00,0,28175249,201855
OK,47,41,774,47,2014-10-01T21:30:00,1,28175698,201855
OK,47,41,774,47,2014-10-01T21:35:00,0,28176147,201855
OK,47,41,774,47,2014-10-01T21:45:00,0,28176596,201855
OK,47,41,774,47,2014-10-01T21:50:00,0,28177392,201855
OK,47,41,774,47,2014-10-01T21:55:00,0,28177838,201855
OK,47,41,774,47,2014-10-01T22:05:00,0,28178287,201855
OK,47,41,774,47,2014-10-01T22:10:00,0,28178735,201855
OK,34,57,774,34,2014-10-01T22:15:00,1,28179613,201855
OK,45,43,774,45,2014-10-01T22:20:00,1,28180058,201855
OK,45,43,774,45,2014-10-01T22:25:00,0,28180458,201855
OK,45,43,774,45,2014-10-01T22:30:00,0,28180905,201855
OK,30,64,774,30,2014-10-01T22:35:00,0,28181329,201855
OK,30,64,774,30,2014-10-01T22:40:00,0,28181777,201855
OK,34,57,774,34,2014-10-01T22:45:00,1,28182224,201855
OK,29,66,774,29,2014-10-01T22:50:00,2,28182673,201855
OK,34,57,774,34,2014-10-01T22:55:00,1,28183090,201855
OK,34,57,774,34,2014-10-01T23:00:00,0,28183523,201855
OK,34,57,774,34,2014-10-01T23:05:00,0,28183968,201855
OK,34,57,774,34,2014-10-01T23:10:00,0,28184417,201855
OK,34,57,774,34,2014-10-01T23:15:00,0,28184852,201855
OK,34,57,774,34,2014-10-01T23:20:00,0,28185300,201855
OK,34,57,774,34,2014-10-01T23:25:00,0,28185731,201855
OK,34,57,774,34,2014-10-01T23:30:00,0,28186123,201855
OK,34,57,774,34,2014-10-01T23:35:00,0,28186572,201855
OK,34,57,774,34,2014-10-01T23:40:00,0,28186970,201855
OK,34,57,774,34,2014-10-01T23:45:00,0,28187412,201855
OK,34,57,774,34,2014-10-01T23:50:00,0,28187861,201855
OK,34,57,774,34,2014-10-01T23:55:00,0,28188302,201855
OK,44,44,774,44,2014-10-02T00:00:00,2,28188738,201855
OK,30,64,774,30,2014-10-02T00:10:00,0,28189187,201855
OK,30,64,774,30,2014-10-02T00:20:00,0,28190058,201855
OK,30,64,774,30,2014-10-02T00:25:00,0,28190860,201855
OK,30,64,774,30,2014-10-02T00:35:00,0,28191309,201855
OK,30,64,774,30,2014-10-02T00:45:00,0,28192064,201855
OK,30,64,774,30,2014-10-02T00:50:00,0,28192943,201855
OK,30,64,774,30,2014-10-02T00:55:00,0,28193310,201855
OK,46,42,774,46,2014-10-02T01:00:00,1,28193757,201855
OK,46,42,774,46,2014-10-02T01:10:00,0,28194206,201855
OK,46,42,774,46,2014-10-02T01:15:00,0,28194655,201855
OK,46,42,774,46,2014-10-02T01:20:00,0,28195340,201855
OK,44,44,774,44,2014-10-02T01:30:00,1,28195789,201855
OK,44,44,774,44,2014-10-02T01:35:00,0,28196232,201855
OK,44,44,774,44,2014-10-02T01:40:00,0,28196522,201855
OK,38,51,774,38,2014-10-02T01:50:00,0,28197394,201855
OK,38,51,774,38,2014-10-02T01:55:00,0,28197843,201855
OK,38,51,774,38,2014-10-02T02:00:00,0,28198290,201855
OK,38,51,774,38,2014-10-02T02:05:00,0,28198739,201855
OK,38,51,774,38,2014-10-02T02:10:00,0,28199557,201855
OK,38,51,774,38,2014-10-02T02:15:00,0,28199995,201855
OK,38,51,774,38,2014-10-02T02:20:00,0,28200438,201855
OK,38,51,774,38,2014-10-02T02:25:00,0,28200887,201855
OK,38,51,774,38,2014-10-02T02:30:00,0,28201319,201855
OK,47,41,774,47,2014-10-02T02:45:00,0,28202216,201855
OK,47,41,774,47,2014-10-02T02:50:00,0,28202660,201855
OK,47,41,774,47,2014-10-02T02:55:00,0,28203106,201855
OK,47,41,774,47,2014-10-02T03:00:00,0,28203544,201855
OK,47,41,774,47,2014-10-02T03:10:00,0,28203990,201855
OK,48,40,774,48,2014-10-02T03:25:00,1,28204439,201855
OK,77,25,774,77,2014-10-02T03:35:00,1,28204888,201855
OK,77,25,774,77,2014-10-02T03:40:00,0,28205764,201855
OK,77,25,774,77,2014-10-02T03:45:00,0,28206150,201855
OK,77,25,774,77,2014-10-02T03:55:00,0,28206595,201855
OK,50,38,774,50,2014-10-02T04:00:00,1,28207044,201855
OK,50,38,774,50,2014-10-02T04:10:00,0,28207912,201855
OK,50,38,774,50,2014-10-02T04:15:00,0,28208357,201855
OK,38,51,774,38,2014-10-02T04:20:00,2,28208788,201855
OK,40,48,774,40,2014-10-02T04:30:00,0,28209675,201855
OK,40,48,774,40,2014-10-02T04:35:00,0,28210123,201855
OK,57,34,774,57,2014-10-02T04:40:00,3,28210547,201855
OK,57,34,774,57,2014-10-02T04:45:00,1,28210994,201855
OK,57,34,774,57,2014-10-02T04:50:00,0,28211797,201855
OK,50,38,774,50,2014-10-02T05:00:00,1,28212243,201855
OK,48,40,774,48,2014-10-02T05:05:00,3,28212692,201855
OK,53,36,774,53,2014-10-02T05:10:00,0,28213121,201855
OK,36,53,774,36,2014-10-02T05:15:00,3,28213570,201855
OK,49,39,774,49,2014-10-02T05:20:00,0,28214008,201855
OK,52,37,774,52,2014-10-02T05:25:00,3,28214457,201855
OK,52,37,774,52,2014-10-02T05:30:00,1,28214870,201855
OK,85,22,774,85,2014-10-02T05:40:00,7,28215735,201855
OK,83,23,774,83,2014-10-02T05:45:00,3,28216184,201855
OK,56,34,774,56,2014-10-02T05:50:00,0,28216521,201855
OK,93,20,774,93,2014-10-02T05:55:00,10,28216963,201855
OK,56,34,774,56,2014-10-02T06:00:00,11,28217410,201855
OK,57,34,774,57,2014-10-02T06:10:00,1,28218298,201855
OK,56,34,774,56,2014-10-02T06:15:00,9,28218745,201855
OK,56,34,774,56,2014-10-02T06:20:00,13,28219167,201855
OK,55,35,774,55,2014-10-02T06:30:00,14,28219989,201855
OK,68,28,774,68,2014-10-02T06:40:00,6,28220872,201855
OK,82,23,774,82,2014-10-02T06:45:00,10,28221541,201855
OK,99,19,774,99,2014-10-02T07:00:00,11,28222133,201855
OK,70,27,774,70,2014-10-02T07:10:00,8,28222582,201855
OK,75,25,774,75,2014-10-02T07:15:00,5,28223027,201855
OK,59,32,774,59,2014-10-02T07:20:00,0,28223896,201855
OK,89,21,774,89,2014-10-02T07:25:00,2,28224253,201855
OK,89,21,774,89,2014-10-02T07:30:00,0,28224700,201855
OK,41,47,774,41,2014-10-02T07:40:00,1,28225149,201855
OK,70,27,774,70,2014-10-02T07:50:00,4,28225920,201855
OK,67,28,774,67,2014-10-02T07:55:00,4,28226369,201855
OK,48,40,774,48,2014-10-02T08:00:00,2,28226810,201855
OK,43,45,774,43,2014-10-02T08:05:00,3,28227259,201855
OK,61,31,774,61,2014-10-02T08:10:00,2,28227674,201855
OK,34,57,774,34,2014-10-02T08:20:00,2,28228482,201855
OK,42,46,774,42,2014-10-02T08:25:00,5,28228929,201855
OK,59,32,774,59,2014-10-02T08:30:00,4,28229341,201855
OK,74,26,774,74,2014-10-02T08:40:00,1,28230140,201855
OK,36,53,774,36,2014-10-02T08:50:00,5,28230955,201855
OK,36,53,774,36,2014-10-02T08:55:00,0,28231401,201855
OK,36,53,774,36,2014-10-02T09:00:00,0,28231827,201855
OK,36,53,774,36,2014-10-02T09:10:00,0,28232618,201855
OK,72,26,774,72,2014-10-02T09:20:00,1,28233067,201855
OK,77,25,774,77,2014-10-02T09:25:00,9,28233515,201855
OK,81,23,774,81,2014-10-02T09:30:00,3,28233940,201855
OK,29,66,774,29,2014-10-02T09:40:00,0,28234722,201855
OK,82,23,774,82,2014-10-02T09:50:00,0,28235598,201855
OK,83,23,774,83,2014-10-02T09:55:00,6,28236046,201855
OK,51,38,774,51,2014-10-02T10:00:00,3,28236488,201855
OK,109,17,774,109,2014-10-02T10:05:00,0,28237339,201855
OK,74,26,774,74,2014-10-02T10:15:00,9,28237787,201855
OK,66,29,774,66,2014-10-02T10:20:00,10,28238235,201855
OK,86,22,774,86,2014-10-02T10:25:00,5,28238682,201855
OK,86,22,774,86,2014-10-02T10:30:00,0,28239124,201855
OK,30,64,774,30,2014-10-02T10:40:00,0,28240003,201855
OK,56,34,774,56,2014-10-02T10:45:00,2,28240450,201855
OK,52,37,774,52,2014-10-02T10:50:00,1,28240896,201855
OK,52,37,774,52,2014-10-02T10:55:00,4,28241345,201855
OK,31,62,774,31,2014-10-02T11:00:00,0,28241777,201855
OK,81,23,774,81,2014-10-02T11:10:00,5,28242621,201855
OK,37,52,774,37,2014-10-02T11:15:00,2,28243070,201855
OK,49,39,774,49,2014-10-02T11:20:00,4,28243519,201855
OK,67,28,774,67,2014-10-02T11:25:00,0,28243842,201855
OK,67,28,774,67,2014-10-02T11:30:00,0,28244711,201855
OK,41,47,774,41,2014-10-02T11:40:00,3,28245160,201855
OK,49,39,774,49,2014-10-02T11:50:00,4,28246015,201855
OK,36,53,774,36,2014-10-02T12:00:00,0,28246901,201855
OK,36,53,774,36,2014-10-02T12:05:00,0,28247348,201855
OK,79,24,774,79,2014-10-02T12:15:00,6,28248226,201855
OK,89,21,774,89,2014-10-02T12:20:00,3,28248675,201855
OK,125,15,774,125,2014-10-02T12:30:00,3,28249545,201855
OK,88,22,774,88,2014-10-02T12:35:00,5,28250362,201855
OK,61,31,774,61,2014-10-02T12:45:00,3,28251142,201855
OK,50,38,774,50,2014-10-02T13:20:00,5,28251687,201855
OK,87,22,774,87,2014-10-02T13:30:00,8,28252271,201855
OK,104,18,774,104,2014-10-02T13:35:00,2,28252713,201855
OK,104,18,774,104,2014-10-02T13:40:00,0,28253130,201855
OK,51,38,774,51,2014-10-02T13:50:00,5,28253579,201855
OK,82,23,774,82,2014-10-02T13:55:00,3,28254305,201855
OK,47,41,774,47,2014-10-02T14:10:00,4,28254882,201855
OK,50,38,774,50,2014-10-02T14:15:00,6,28255331,201855
OK,112,17,774,112,2014-10-02T14:20:00,5,28255761,201855
OK,112,17,774,112,2014-10-02T14:25:00,1,28256208,201855
OK,58,33,774,58,2014-10-02T14:30:00,7,28256636,201855
OK,66,29,774,66,2014-10-02T14:35:00,7,28257085,201855
OK,74,26,774,74,2014-10-02T14:40:00,4,28257526,201855
OK,88,22,774,88,2014-10-02T14:45:00,6,28257974,201855
OK,76,25,774,76,2014-10-02T14:50:00,12,28258407,201855
OK,60,32,774,60,2014-10-02T14:55:00,10,28258853,201855
OK,58,33,774,58,2014-10-02T15:00:00,4,28259302,201855
OK,64,30,774,64,2014-10-02T15:05:00,2,28259749,201855
OK,46,42,774,46,2014-10-02T15:10:00,4,28260183,201855
OK,56,34,774,56,2014-10-02T15:15:00,5,28260631,201855
OK,98,19,774,98,2014-10-02T15:20:00,3,28261071,201855
OK,74,26,774,74,2014-10-02T15:25:00,5,28261453,201855
OK,77,25,774,77,2014-10-02T15:30:00,2,28261883,201855
OK,98,19,774,98,2014-10-02T15:35:00,2,28262330,201855
OK,98,19,774,98,2014-10-02T15:40:00,2,28262776,201855
OK,95,20,774,95,2014-10-02T15:45:00,2,28263214,201855
OK,90,21,774,90,2014-10-02T15:50:00,0,28263655,201855
OK,90,21,774,90,2014-10-02T15:55:00,0,28264057,201855
OK,90,21,774,90,2014-10-02T16:00:00,0,28264506,201855
OK,44,44,774,44,2014-10-02T16:05:00,4,28264944,201855
OK,40,48,774,40,2014-10-02T16:10:00,5,28265384,201855
OK,40,48,774,40,2014-10-02T16:15:00,3,28265780,201855
OK,37,52,774,37,2014-10-02T16:20:00,6,28266229,201855
OK,49,39,774,49,2014-10-02T16:25:00,2,28266678,201855
OK,60,32,774,60,2014-10-02T16:30:00,1,28267004,201855
OK,60,32,774,60,2014-10-02T16:35:00,1,28267450,201855
OK,60,32,774,60,2014-10-02T16:40:00,0,28267899,201855
OK,63,30,774,63,2014-10-02T16:45:00,2,28268341,201855
OK,51,38,774,51,2014-10-02T16:50:00,0,28268790,201855
OK,82,23,774,82,2014-10-02T16:55:00,1,28269239,201855
OK,44,44,774,44,2014-10-02T17:00:00,2,28269674,201855
OK,44,44,774,44,2014-10-02T17:05:00,2,28270123,201855
OK,31,62,774,31,2014-10-02T17:10:00,0,28270557,201855
OK,31,62,774,31,2014-10-02T17:15:00,0,28271006,201855
OK,31,62,774,31,2014-10-02T17:20:00,0,28271436,201855
OK,31,62,774,31,2014-10-02T17:25:00,0,28271884,201855
OK,31,62,774,31,2014-10-02T17:30:00,0,28272320,201855
OK,31,62,774,31,2014-10-02T17:35:00,0,28272761,201855
OK,31,62,774,31,2014-10-02T17:40:00,0,28273209,201855
OK,41,47,774,41,2014-10-02T17:45:00,2,28273655,201855
OK,39,49,774,39,2014-10-02T17:55:00,1,28274104,201855
OK,75,25,774,75,2014-10-02T18:00:00,3,28274878,201855
OK,50,38,774,50,2014-10-02T18:05:00,2,28275317,201855
OK,50,38,774,50,2014-10-02T18:10:00,0,28275762,201855
OK,50,38,774,50,2014-10-02T18:15:00,0,28276208,201855
OK,50,38,774,50,2014-10-02T18:20:00,0,28276604,201855
OK,50,38,774,50,2014-10-02T18:30:00,0,28277053,201855
OK,50,38,774,50,2014-10-02T18:40:00,0,28277502,201855
OK,19,102,774,19,2014-10-02T18:45:00,0,28278299,201855
OK,31,62,774,31,2014-10-02T19:00:00,0,28278748,201855
OK,48,40,774,48,2014-10-02T19:05:00,0,28279197,201855
OK,48,40,774,48,2014-10-02T19:10:00,0,28279642,201855
OK,57,34,774,57,2014-10-02T19:15:00,1,28280083,201855
OK,57,34,774,57,2014-10-02T19:20:00,0,28280530,201855
OK,58,33,774,58,2014-10-02T19:25:00,2,28280934,201855
OK,68,28,774,68,2014-10-02T19:35:00,0,28281832,201855
OK,68,28,774,68,2014-10-02T19:40:00,0,28282263,201855
OK,68,28,774,68,2014-10-02T19:45:00,0,28282712,201855
OK,68,28,774,68,2014-10-02T19:50:00,0,28283159,201855
OK,68,28,774,68,2014-10-02T19:55:00,0,28283589,201855
OK,68,28,774,68,2014-10-02T20:00:00,0,28283959,201855
OK,36,53,774,36,2014-10-02T20:10:00,0,28284408,201855
OK,52,37,774,52,2014-10-02T20:15:00,0,28285191,201855
OK,52,37,774,52,2014-10-02T20:20:00,0,28285627,201855
OK,52,37,774,52,2014-10-02T20:25:00,0,28286042,201855
OK,52,37,774,52,2014-10-02T20:35:00,0,28286894,201855
OK,52,37,774,52,2014-10-02T20:40:00,0,28287325,201855
OK,52,37,774,52,2014-10-02T20:45:00,0,28287656,201855
OK,64,30,774,64,2014-10-03T22:35:00,1,28291605,201855
OK,64,30,774,64,2014-10-03T22:40:00,0,28292054,201855
OK,64,30,774,64,2014-10-03T22:45:00,0,28292503,201855
OK,64,30,774,64,2014-10-03T22:50:00,0,28292949,201855
OK,40,48,774,40,2014-10-03T22:55:00,0,28293398,201855
OK,40,48,774,40,2014-10-03T23:00:00,0,28293847,201855
OK,40,48,774,40,2014-10-03T23:05:00,0,28294276,201855
OK,40,48,774,40,2014-10-03T23:10:00,0,28294712,201855
OK,47,41,774,47,2014-10-03T23:15:00,1,28295152,201855
OK,36,53,774,36,2014-10-03T23:25:00,1,28295601,201855
OK,28,69,774,28,2014-10-03T23:30:00,1,28296044,201855
OK,28,69,774,28,2014-10-03T23:35:00,0,28296493,201855
OK,28,69,774,28,2014-10-03T23:40:00,0,28296896,201855
OK,28,69,774,28,2014-10-03T23:45:00,0,28297323,201855
OK,28,69,774,28,2014-10-03T23:50:00,0,28297772,201855